Regional Weather Roundup
Issued by NWS Green Bay, WI

Home | Current Version | Previous Version | Graphics & Text | Print | Product List | Glossary Off
Versions: 1 2 3 4 5 6 7 8 9 10 11 12 13 14 15 16 17 18 19 20 21 22 23 24 25 26 27 28 29 30 31 32 33 34 35 36 37 38 39 40 41 42 43 44 45 46 47 48 49 50

000
ASUS43 KGRB 240811
RWRGRB

NORTH-CENTRAL AND NORTHEAST WISCONSIN REGIONAL WEATHER ROUNDUP
NATIONAL WEATHER SERVICE GREEN BAY WI
300 AM CDT MON APR 24 2017

WIZ005-009-010>012-018-019-240900-
NORTH CENTRAL WISCONSIN

CITY           SKY/WX    TMP DP  RH WIND       PRES   REMARKS
IRONWOOD       CLOUDY    32  26  78 E12       30.02F
MANITOWISH WTR CLOUDY    32  23  71 E7        30.00S
ARBOR VITAE    PTCLDY    34  24  68 E7        29.99F
EAGLE RIVER    CLOUDY    31  12  45 SE9       30.01F
LAND O LAKES   CLOUDY    31  13  47 SE9       30.03F
RHINELANDER    PTCLDY    35  23  61 SE8       30.00F
PHILLIPS       PTCLDY    35  28  76 SE10      29.97S
ANTIGO         CLOUDY    31  22  71 SE9       30.03F
TOMAHAWK       PTCLDY    33  25  72 SE3       30.01F
MERRILL        CLOUDY    34  25  69 SE7       30.02F
$$

WIZ013-073-240900-
NORTHEAST WISCONSIN

CITY           SKY/WX    TMP DP  RH WIND       PRES   REMARKS
IRON MOUNTAIN  CLEAR     29  18  63 VRB6      30.06F
MARINETTE      CLEAR     35  27  72 E10       30.08F
OCONTO         PTCLDY    35  27  70 E5        30.08F
$$

WIZ017-030-035>037-045-240900-
CENTRAL WISCONSIN

CITY           SKY/WX    TMP DP  RH WIND       PRES   REMARKS
MEDFORD        PTCLDY    34  29  82 SE9G17    29.98F
WAUSAU         PTCLDY    34  26  72 SE12      30.01F
MOSINEE        MOCLDY    32  30  93 E9        30.03F
MARSHFIELD     CLOUDY    36  30  79 E12       29.99F
WISC RAPIDS    CLOUDY    36  29  75 E7        30.03F
STEVENS POINT  CLOUDY    33  28  80 E7        30.03F
WAUPACA        CLEAR     38  28  68 NE6       30.06S
SHAWANO        CLEAR     37  29  75 E9        30.07F
CLINTONVILLE   PTCLDY    34  28  80 E3        30.06F
WAUTOMA        PTCLDY    36  29  75 NE5       30.05S
$$

WIZ038-039-048-051-240900-
FOX VALLEY

CITY           SKY/WX    TMP DP  RH WIND       PRES   REMARKS
NWS GREEN BAY  CLEAR     37  30  75 E9        30.06F
APPLETON       CLEAR     36  27  69 E12       30.03F
OSHKOSH        PTCLDY    39  31  72 E7        30.04F
FOND DU LAC    PTCLDY    37  29  72 NE8       30.04F
$$

WIZ022-050-052-240900-
EAST CENTRAL WISCONSIN

CITY           SKY/WX    TMP DP  RH WIND       PRES   REMARKS
EPHRAIM        FAIR      32  29  88 E8        30.07F
WASHINGTON ISL FAIR      32  26  79 CALM      30.08F
STURGEON BAY   CLEAR     35  29  78 E10       30.07F
MANITOWOC      CLEAR     37  30  75 NE6       30.06F
SHEBOYGAN      CLEAR     36  30  79 NE10      30.04F
$$

LMZ563-521-522-541>543-240900-
LAKESHORE

STATION/POSITION TIME  TEMP    WIND        PRES    VSBY  WAVE
                       AIR SEA DIR/SP/G                  HT/PER
                 (UTC) (F)     (DEG/KT/KT) (MB)    (MI)  (FT/S)
SHEBOYGAN LKSHOR 0800   39      10/ 16/ 18 1017.7F
KEWAUNEE LKSHORE 0748   38      50/ 12/ 16 1017.9F
NORTHPORT PIER   0740   35      80/ 14/ 17 1019.0F
N MID LAKE BUOY  0750   35 37   80/ 16/ 17 1020.2F         3/ 4
CHAMBERS ISLAND  0740   35      50/ 10/ 14 1018.6F
MENOMINEE LKSHOR 0748   36      60/ 13/ 15 1017.8F
$$



USA.gov is the U.S. government's official web portal to all federal, state and local government web resources and services.